Wind_Speed
13 9 5 4 2 3 1 3 5 5 4 5 7 5 8 5 5 5 18 26 30 31 33 35 31 29 27 24 21 21 21 19 18 16 14 12 11 11 12 12 12 12 11 11 10 10 11 12 10
8 6 4 3 1 0 6 5 5 2 1 4 7 4 5 9 6 14 23 35 32 32 32 31 31 28 26 23 21 20 19 18 16 15 12 11 11 11 10 10 11 12 11 11 11 11 10 10 11
7 6 4 3 3 4 5 4 3 3 1 5 7 7 9 11 5 17 29 34 32 33 31 31 29 27 25 22 20 20 18 16 15 13 12 11 11 11 9 10 11 11 12 11 10 10 10 10 12
6 5 5 5 5 5 6 4 5 5 3 5 8 6 8 10 9 24 31 36 33 31 32 31 29 26 23 21 19 18 17 15 13 12 11 11 10 10 9 9 10 11 12 10 9 9 9 10 10
5 4 1 1 4 4 4 5 6 3 2 4 8 9 12 16 22 24 33 34 32 31 32 30 28 25 21 19 18 17 16 14 12 11 11 11 11 10 9 9 11 11 11 10 9 10 10 9 8
4 2 3 2 4 2 4 5 5 3 5 3 5 10 18 19 25 28 32 31 31 31 32 28 27 24 20 19 17 16 16 14 11 10 11 10 11 10 10 11 11 11 10 9 9 10 10 10 11
6 5 4 2 3 3 5 7 5 5 5 7 8 15 24 29 25 30 30 32 32 31 31 28 26 23 20 18 17 16 15 13 11 11 10 10 10 9 9 9 9 9 9 8 8 9 10 9 11
7 8 4 9 7 8 6 6 5 7 5 11 9 13 23 29 30 30 32 34 32 31 30 27 25 23 20 18 17 16 14 13 12 11 9 9 9 9 7 8 8 7 8 9 9 9 8 8 8
1 6 9 6 6 7 9 6 4 3 5 11 9 12 18 27 33 33 33 34 33 30 29 25 24 22 20 19 17 15 14 12 11 9 9 8 8 7 6 6 7 7 6 7 7 7 8 7 7
4 7 8 6 6 8 8 6 3 4 5 12 8 10 18 25 31 34 32 32 30 29 28 26 24 21 20 20 17 15 13 12 10 9 7 7 6 6 6 6 6 6 5 5 5 6 7 9 9
8 7 6 3 6 6 6 7 4 6 8 7 5 3 14 21 27 30 29 29 27 25 26 25 24 22 21 20 18 15 14 12 10 7 6 5 4 2 1 2 2 2 4 5 2 5 6 5 4
11 7 7 5 8 3 7 7 7 7 5 6 4 5 8 18 21 24 26 26 27 26 25 25 23 23 22 20 18 15 14 12 8 6 4 4 2 2 3 2 2 3 3 2 3 3 6 6 7
14 10 8 8 5 5 8 10 8 9 4 3 3 10 15 16 19 21 23 24 25 24 25 25 24 24 22 20 18 16 14 11 8 6 4 3 2 2 2 2 2 1 2 4 5 5 5 6 8
11 17 11 9 7 6 9 8 11 11 8 4 3 8 17 16 18 22 26 27 25 25 25 25 24 23 21 19 16 14 12 10 8 7 5 4 2 2 1 2 1 2 3 3 5 8 7 7 9
15 11 14 12 11 9 10 11 12 13 10 10 4 5 15 18 20 21 23 24 25 26 26 26 24 23 20 18 17 14 12 9 8 7 7 6 5 4 2 3 2 3 4 5 7 7 7 10 10
16 16 17 15 16 13 13 11 15 13 13 9 11 7 9 17 18 20 23 23 25 26 27 26 25 23 20 18 16 14 12 10 9 9 8 7 8 7 4 3 3 5 4 7 7 7 9 9 6
20 20 21 16 18 13 15 12 10 11 11 16 14 11 9 13 19 22 24 25 27 27 28 27 25 23 21 19 17 15 13 11 10 8 8 9 10 8 6 4 4 6 7 10 9 6 5 6 8
24 25 20 21 18 18 15 16 11 16 16 19 17 16 16 11 14 22 25 27 28 29 28 28 26 24 22 20 19 17 14 12 10 8 8 9 11 9 7 6 7 8 5 7 2 2 3 5 6
21 19 23 21 14 17 19 18 14 15 19 20 20 18 18 16 13 19 25 30 31 32 31 29 27 25 24 22 19 17 14 13 11 10 10 8 9 10 7 7 8 7 6 3 3 2 3 3 5
30 23 25 21 18 17 18 18 15 18 20 22 22 18 20 20 18 19 24 29 33 32 30 29 27 26 23 21 18 17 14 13 12 13 13 11 11 10 10 6 8 8 6 4 1 2 2 1 3
33 33 26 23 17 20 17 21 20 17 17 21 23 19 21 24 22 18 21 26 29 32 32 31 28 26 24 22 21 19 19 17 14 12 11 12 13 13 12 10 10 9 8 5 3 1 1 3 3
37 32 25 22 19 19 17 23 24 24 21 21 22 24 21 22 26 20 21 25 28 28 30 31 30 28 25 25 24 21 17 14 11 11 12 14 15 15 14 13 12 12 12 7 5 3 2 5 4
34 25 25 28 26 24 28 18 26 18 25 25 23 24 25 21 26 27 19 19 23 25 31 32 30 29 27 25 23 20 19 15 15 15 14 13 14 16 16 15 16 17 14 10 8 6 6 6 6
21 25 23 22 27 27 36 32 30 28 26 25 25 23 25 25 25 29 26 19 23 26 31 33 32 29 28 26 25 22 19 17 17 16 14 13 13 14 16 18 20 20 17 13 10 7 7 7 5
33 29 17 18 23 21 29 35 37 16 26 26 25 26 26 26 21 24 32 29 22 28 31 34 33 32 30 28 27 24 21 21 19 17 17 16 14 14 15 20 22 21 19 17 11 7 4 5 6
39 38 24 20 15 21 26 25 40 33 28 9 28 25 22 29 24 25 26 29 28 22 27 33 36 34 33 30 28 26 25 25 23 22 19 17 15 15 18 21 24 24 23 20 15 11 7 4 2
37 44 37 21 16 13 26 32 25 20 27 31 27 22 29 26 32 28 24 25 30 31 25 23 33 34 34 33 31 30 28 29 27 25 21 19 17 17 20 23 25 26 25 22 20 17 14 9 7
26 33 35 36 22 20 17 24 25 18 33 26 28 31 23 28 31 27 23 20 22 26 30 27 26 26 27 27 29 34 33 31 30 28 27 24 20 20 22 25 27 30 28 25 23 20 18 13 11
39 31 42 30 30 13 14 19 23 24 24 27 26 29 29 29 31 29 23 17 18 21 27 32 35 30 29 28 27 23 30 35 33 33 32 29 24 23 25 28 29 31 31 28 27 23 22 17 15
37 36 41 32 32 39 26 17 8 6 14 22 22 23 26 28 26 27 24 18 16 15 22 29 33 37 36 32 31 29 21 22 28 33 31 29 28 26 27 30 33 33 33 32 31 26 24 22 20
Wind_Direction
43 35 56 60 68 97 104 96 85 91 90 109 154 132 182 170 125 145 143 150 147 140 136 136 137 133 131 128 127 126 126 124 121 118 114 107 103 96 89 90 91 92 102 100 94 102 99 87 91
33 40 66 74 296 70 85 77 103 89 281 136 152 163 144 147 153 149 141 148 148 145 140 136 135 134 131 129 124 128 128 125 121 117 112 105 93 85 85 89 89 88 91 92 92 98 98 88 84
2 10 50 86 40 49 74 70 109 17 109 150 169 153 166 182 163 156 146 151 150 148 144 142 136 136 131 128 128 132 131 126 121 115 110 98 91 93 92 89 89 88 92 94 93 91 94 92 90
357 7 79 104 85 89 70 102 107 98 153 172 159 184 192 176 162 155 148 150 151 150 149 144 140 136 136 133 131 132 131 127 120 114 104 96 94 90 93 91 90 93 97 100 90 88 97 100 97
348 333 271 114 86 87 58 128 108 97 186 163 172 201 169 155 155 159 151 151 155 154 151 147 141 140 141 138 134 133 131 128 124 113 105 103 101 96 95 94 97 99 100 93 88 87 85 79 72
322 311 282 184 84 79 91 107 102 104 81 112 166 172 165 156 156 159 155 154 161 156 155 151 145 146 145 141 137 137 138 130 120 113 110 106 101 99 97 95 94 96 93 89 82 79 81 67 52
240 242 255 134 132 116 136 116 98 133 102 112 120 146 151 156 157 163 162 163 162 161 161 156 153 153 150 145 145 147 136 129 123 122 117 107 101 102 99 94 92 96 92 79 77 77 74 57 59
280 233 201 134 109 103 153 124 122 121 126 127 126 149 154 155 157 165 165 165 164 166 165 162 161 159 155 152 157 148 138 131 125 124 114 108 98 92 93 93 93 90 85 68 68 69 61 56 54
280 190 185 158 142 131 141 114 95 118 133 136 125 157 168 158 159 165 167 167 167 168 169 168 165 164 160 162 161 150 141 134 132 122 116 109 100 94 86 81 93 91 90 70 51 43 39 35 26
190 186 169 177 159 138 167 131 67 97 139 159 130 161 172 169 163 167 170 170 169 172 171 170 168 168 168 168 162 154 147 142 135 130 122 120 108 103 94 95 103 96 91 72 71 33 18 26 8
214 175 201 196 168 158 173 163 165 129 153 176 156 153 179 183 170 172 173 172 172 172 173 172 173 170 172 170 167 160 155 150 147 143 143 122 132 135 131 93 82 68 69 42 54 16 359 0 17
208 201 170 167 170 164 188 191 178 148 145 168 171 191 179 189 182 177 176 174 175 175 175 175 175 173 172 175 172 168 164 161 157 160 147 139 121 107 96 102 94 53 38 40 21 351 333 337 348
209 196 191 212 207 236 208 202 189 188 177 113 95 165 160 189 186 182 180 179 178 179 178 176 175 175 176 179 178 175 172 172 173 187 196 176 159 126 104 139 86 321 342 339 340 333 322 306 318
220 196 206 227 221 216 180 194 194 204 208 190 91 161 159 179 184 186 188 183 182 183 181 179 177 178 180 182 183 183 187 187 192 205 216 216 198 192 170 179 217 331 344 306 326 323 318 296 303
218 214 214 221 212 200 187 201 202 217 218 222 210 163 169 174 187 193 193 190 187 186 185 182 181 183 183 185 189 194 201 203 213 224 236 236 220 202 199 224 266 319 319 307 297 311 309 309 310
216 224 223 220 205 205 205 212 212 210 214 223 225 217 188 188 191 196 193 193 194 193 191 186 186 187 188 194 200 204 211 215 229 240 244 239 221 208 214 238 282 310 322 306 288 298 342 328 325
211 212 212 197 208 208 205 207 208 207 221 220 221 230 223 203 196 199 197 193 196 197 194 191 191 192 194 202 209 213 220 223 228 230 240 237 222 214 221 243 276 301 298 304 287 292 307 343 358
206 213 209 207 207 209 222 224 230 226 217 216 228 228 231 227 212 201 200 195 196 200 198 196 196 198 199 206 213 219 223 227 231 224 222 223 224 223 229 256 275 279 282 305 20 294 358 3 358
216 216 216 210 198 218 233 237 235 236 224 215 224 230 231 224 212 208 203 200 198 200 200 199 199 200 204 212 216 222 227 232 234 233 228 225 229 226 229 255 269 277 252 270 259 314 342 8 15
217 221 220 216 215 227 233 239 236 236 225 212 214 229 226 219 217 211 207 206 205 204 202 203 201 205 209 217 220 222 222 221 227 231 234 236 238 241 246 256 267 267 223 209 227 311 332 114 63
217 219 218 222 229 236 239 244 235 235 228 216 219 226 219 218 220 219 211 209 209 207 206 204 204 207 211 215 219 217 215 213 222 236 244 249 250 252 256 250 252 225 198 192 147 79 99 143 102
221 222 225 228 228 234 225 252 234 232 230 222 221 214 224 218 219 224 218 210 211 211 209 207 206 208 213 216 219 219 221 221 222 229 233 239 243 247 249 241 230 210 189 182 151 117 117 171 138
224 221 229 231 236 249 243 248 244 227 228 226 222 222 215 224 219 217 216 215 215 212 209 208 211 211 215 218 217 220 223 221 223 228 235 243 253 252 247 232 216 201 187 170 148 113 98 149 161
220 215 225 231 233 241 238 239 250 236 231 230 228 225 216 216 219 221 222 218 213 213 213 213 214 214 217 221 222 219 220 224 229 233 239 246 251 252 245 226 210 197 191 187 164 126 100 96 123
208 199 201 217 225 237 235 235 235 239 236 235 224 225 217 216 222 230 218 220 216 216 216 218 218 219 222 224 227 227 225 226 230 232 235 239 245 246 239 220 207 200 193 187 181 174 147 109 97
203 201 205 212 219 228 225 239 240 239 229 222 224 221 213 213 214 218 224 222 222 219 219 219 221 223 227 230 234 236 233 230 231 230 234 237 241 240 230 214 207 204 204 200 195 197 208 199 186
205 212 211 241 226 262 231 230 244 233 231 229 226 216 216 218 211 215 221 223 226 224 222 230 227 223 229 236 240 242 242 240 239 239 237 236 236 237 231 217 210 209 210 208 204 211 227 231 240
209 208 212 223 240 242 234 237 234 233 229 222 220 218 212 209 214 212 222 223 222 225 228 227 222 223 229 238 243 245 246 244 242 240 241 239 229 230 233 223 218 213 216 217 214 214 230 232 244
201 210 215 219 221 227 237 244 245 239 231 219 220 217 213 210 213 219 219 217 224 224 221 226 231 222 222 232 238 241 240 241 241 243 248 240 229 224 227 226 227 221 221 221 219 220 233 233 243
210 207 204 211 213 234 257 243 188 212 221 219 216 219 210 209 217 219 229 230 231 228 230 226 227 226 224 227 232 236 232 229 235 239 238 230 228 226 228 227 228 228 226 225 223 221 230 242 243
Height
3164 3163 3162 3162 3167 3162 3163 3164 3163 3163 3163 3161 3162 3164 3164 3165 3167 3172 3171 3174 3179 3181 3184 3187 3191 3194 3196 3199 3201 3203 3205 3207 3208 3208 3209 3209 3211 3210 3210 3211 3211 3211 3211 3211 3212 3212 3212 3211 3211
3165 3164 3163 3163 3164 3163 3163 3164 3165 3165 3161 3161 3162 3164 3166 3167 3168 3169 3171 3175 3181 3184 3187 3189 3193 3196 3199 3201 3203 3206 3207 3209 3210 3211 3212 3212 3212 3212 3212 3212 3212 3213 3213 3213 3213 3213 3213 3213 3212
3164 3164 3164 3164 3164 3164 3164 3165 3164 3162 3161 3163 3163 3164 3165 3167 3169 3171 3173 3177 3182 3186 3188 3191 3195 3199 3202 3204 3206 3208 3209 3210 3212 3213 3214 3214 3214 3214 3214 3214 3215 3216 3215 3215 3214 3214 3215 3214 3213
3164 3165 3166 3166 3164 3166 3166 3165 3163 3163 3163 3163 3164 3164 3166 3167 3170 3172 3175 3180 3184 3187 3191 3194 3197 3201 3204 3206 3208 3209 3211 3212 3214 3215 3216 3216 3216 3216 3216 3217 3218 3217 3217 3216 3216 3216 3216 3216 3215
3165 3165 3167 3166 3166 3167 3166 3165 3166 3166 3164 3163 3164 3163 3165 3168 3171 3174 3177 3181 3186 3189 3193 3196 3199 3203 3205 3207 3209 3211 3212 3214 3215 3216 3217 3217 3218 3218 3219 3219 3219 3219 3219 3219 3219 3219 3218 3218 3217
3167 3166 3168 3163 3167 3167 3166 3166 3167 3166 3164 3163 3163 3162 3165 3169 3172 3176 3180 3183 3188 3191 3195 3198 3201 3205 3207 3209 3211 3213 3214 3216 3216 3218 3219 3219 3220 3220 3221 3221 3221 3221 3222 3222 3221 3221 3220 3220 3219
3166 3167 3168 3167 3168 3168 3168 3167 3169 3167 3166 3166 3164 3165 3166 3169 3174 3178 3182 3185 3189 3193 3196 3200 3203 3206 3208 3210 3212 3214 3215 3217 3218 3219 3220 3220 3221 3222 3222 3223 3223 3223 3224 3224 3223 3222 3222 3221 3221
3164 3166 3168 3167 3167 3169 3168 3169 3168 3169 3168 3167 3167 3170 3169 3170 3174 3179 3183 3186 3190 3194 3198 3201 3204 3207 3209 3211 3214 3215 3217 3218 3219 3221 3221 3222 3223 3224 3224 3224 3225 3225 3225 3225 3224 3224 3224 3223 3223
3163 3168 3166 3167 3168 3170 3168 3169 3168 3168 3168 3168 3169 3170 3172 3173 3175 3179 3183 3187 3190 3194 3198 3202 3205 3208 3210 3212 3215 3216 3218 3219 3220 3222 3223 3224 3225 3225 3225 3226 3226 3227 3227 3227 3226 3226 3225 3225 3224
3163 3165 3166 3167 3168 3169 3169 3171 3169 3170 3169 3170 3171 3172 3174 3175 3176 3180 3183 3187 3191 3195 3198 3202 3205 3208 3211 3213 3215 3217 3219 3220 3222 3223 3225 3225 3225 3226 3226 3226 3227 3227 3228 3228 3227 3227 3226 3225 3226
3162 3165 3165 3166 3166 3168 3170 3171 3171 3172 3172 3171 3171 3172 3174 3176 3179 3181 3185 3189 3192 3196 3199 3202 3205 3208 3212 3214 3216 3218 3220 3221 3223 3225 3225 3226 3226 3227 3227 3227 3227 3228 3228 3229 3228 3227 3227 3227 3227
3161 3162 3163 3165 3165 3168 3170 3171 3171 3172 3174 3172 3171 3172 3174 3177 3181 3183 3187 3190 3192 3196 3200 3202 3205 3209 3212 3215 3217 3219 3220 3222 3224 3225 3226 3227 3227 3228 3228 3228 3228 3228 3228 3228 3229 3229 3227 3226 3225
3158 3161 3162 3163 3164 3166 3168 3170 3172 3172 3172 3171 3171 3172 3173 3178 3181 3185 3188 3191 3194 3197 3199 3202 3205 3208 3212 3215 3217 3219 3220 3222 3224 3225 3226 3227 3227 3229 3229 3230 3230 3230 3229 3229 3228 3228 3228 3226 3226
3157 3157 3160 3162 3164 3165 3167 3168 3169 3171 3171 3172 3172 3173 3174 3177 3181 3184 3186 3189 3193 3196 3199 3202 3206 3209 3212 3214 3217 3219 3220 3222 3224 3225 3225 3226 3227 3228 3229 3230 3230 3230 3230 3229 3228 3226 3227 3226 3224
3155 3157 3158 3160 3162 3165 3166 3168 3167 3168 3169 3170 3172 3173 3173 3176 3179 3183 3187 3189 3192 3196 3199 3202 3205 3208 3211 3214 3217 3219 3220 3221 3223 3224 3225 3226 3226 3226 3229 3229 3230 3230 3229 3228 3227 3226 3225 3224 3223
3151 3155 3156 3157 3159 3162 3164 3162 3165 3165 3167 3168 3170 3172 3173 3174 3178 3182 3185 3188 3191 3194 3197 3201 3204 3207 3210 3213 3216 3218 3219 3221 3222 3223 3224 3225 3225 3226 3227 3228 3229 3228 3228 3228 3227 3225 3225 3224 3222
3148 3149 3152 3154 3156 3159 3161 3161 3163 3164 3164 3166 3168 3170 3172 3173 3176 3180 3183 3186 3189 3193 3196 3199 3202 3206 3209 3212 3215 3217 3219 3220 3221 3222 3223 3224 3224 3225 3226 3227 3228 3228 3228 3227 3226 3225 3225 3223 3221
3141 3146 3146 3149 3153 3156 3158 3159 3161 3162 3162 3164 3165 3168 3170 3172 3174 3177 3180 3183 3187 3190 3194 3197 3200 3204 3208 3211 3213 3215 3217 3219 3220 3221 3222 3223 3224 3225 3225 3225 3227 3227 3227 3226 3225 3225 3225 3223 3222
3141 3144 3145 3148 3150 3153 3154 3156 3158 3159 3159 3162 3161 3164 3167 3170 3172 3174 3177 3180 3183 3187 3191 3194 3198 3202 3205 3209 3211 3214 3216 3218 3219 3220 3221 3221 3222 3223 3224 3224 3225 3225 3225 3225 3225 3224 3224 3223 3222
3137 3140 3142 3145 3147 3149 3150 3151 3153 3155 3154 3157 3159 3159 3163 3167 3168 3171 3173 3177 3180 3184 3188 3192 3195 3199 3203 3207 3210 3212 3214 3216 3217 3218 3219 3221 3221 3222 3222 3225 3224 3225 3224 3225 3225 3224 3223 3223 3222
3129 3132 3138 3142 3144 3145 3147 3146 3148 3150 3151 3153 3155 3157 3160 3163 3165 3168 3170 3174 3178 3181 3185 3189 3193 3197 3200 3204 3207 3209 3211 3212 3214 3216 3218 3219 3220 3220 3221 3224 3223 3224 3224 3225 3225 3224 3223 3223 3223
3123 3129 3135 3139 3141 3139 3141 3137 3138 3143 3145 3147 3150 3152 3155 3158 3161 3164 3167 3170 3173 3178 3183 3187 3190 3193 3197 3200 3203 3206 3209 3211 3213 3214 3215 3216 3217 3218 3219 3221 3221 3223 3224 3225 3224 3224 3222 3222 3222
3119 3128 3131 3135 3137 3139 3135 3137 3131 3135 3139 3141 3144 3146 3150 3153 3156 3160 3164 3167 3172 3176 3179 3184 3187 3190 3193 3197 3200 3203 3206 3208 3210 3212 3213 3214 3215 3216 3217 3218 3219 3221 3223 3224 3224 3223 3223 3222 3222
3117 3123 3127 3130 3132 3126 3125 3129 3123 3127 3131 3136 3140 3142 3144 3148 3152 3156 3160 3164 3167 3171 3175 3179 3183 3187 3190 3194 3197 3200 3203 3205 3207 3209 3210 3211 3213 3213 3214 3215 3217 3219 3221 3223 3223 3223 3223 3223 3222
3110 3116 3117 3120 3116 3105 3118 3120 3116 3121 3125 3128 3133 3137 3139 3143 3147 3150 3154 3158 3162 3165 3170 3174 3179 3183 3186 3190 3193 3197 3200 3202 3204 3206 3208 3209 3210 3210 3211 3213 3215 3218 3220 3221 3222 3223 3223 3223 3223
3097 3102 3098 3099 3097 3104 3112 3103 3106 3116 3121 3122 3126 3133 3135 3138 3141 3146 3149 3154 3158 3161 3165 3168 3172 3178 3182 3186 3190 3193 3196 3197 3200 3202 3205 3206 3207 3207 3207 3210 3212 3215 3218 3220 3221 3222 3222 3222 3222
3089 3091 3099 3096 3097 3098 3095 3100 3107 3108 3110 3114 3120 3124 3130 3133 3137 3140 3146 3149 3153 3157 3159 3163 3167 3173 3177 3180 3185 3187 3191 3193 3196 3198 3201 3202 3203 3204 3205 3206 3209 3212 3215 3217 3218 3219 3220 3220 3221
3081 3091 3094 3092 3091 3091 3090 3093 3094 3097 3101 3106 3112 3119 3124 3129 3132 3137 3141 3144 3147 3151 3155 3158 3162 3167 3171 3175 3178 3181 3184 3188 3191 3193 3194 3196 3198 3200 3201 3203 3205 3208 3211 3214 3215 3216 3217 3218 3218
3075 3078 3082 3088 3087 3084 3087 3084 3088 3091 3096 3099 3105 3112 3118 3124 3128 3132 3136 3139 3142 3145 3148 3152 3156 3160 3164 3168 3172 3174 3177 3180 3184 3186 3188 3190 3193 3195 3196 3199 3201 3204 3206 3209 3211 3213 3213 3213 3214
3067 3070 3073 3075 3080 3083 3082 3081 3083 3087 3090 3095 3101 3107 3113 3120 3125 3127 3131 3133 3136 3139 3142 3144 3148 3153 3157 3162 3166 3169 3172 3173 3175 3177 3181 3184 3186 3189 3191 3194 3197 3200 3202 3204 3207 3208 3209 3209 3210